Temp
-14 -14 -14 -14 -14 -12 -11 -11 -11 -11 -10 -10 -9 -9 -9 -10 -10 -10 -11 -11 -11 -10 -10 -11 -11 -11 -11 -10 -11 -11 -11 -11 -11 -11 -11 -11 -11 -11 -11 -11 -11 -12 -12 -12
-15 -15 -15 -14 -14 -14 -12 -11 -11 -11 -11 -10 -10 -10 -10 -10 -10 -11 -11 -11 -11 -11 -11 -11 -11 -11 -11 -11 -11 -11 -11 -11 -11 -11 -11 -12 -12 -12 -12 -12 -12 -12 -12 -12
-15 -15 -15 -15 -15 -15 -14 -13 -12 -12 -11 -11 -10 -10 -10 -11 -11 -11 -11 -11 -11 -11 -11 -11 -11 -11 -11 -11 -11 -11 -11 -11 -11 -11 -11 -12 -12 -12 -12 -12 -13 -13 -13 -13
-16 -16 -15 -15 -15 -15 -15 -14 -13 -12 -12 -11 -11 -10 -11 -11 -11 -11 -11 -11 -11 -11 -11 -11 -11 -11 -11 -11 -11 -11 -11 -11 -11 -12 -12 -12 -12 -13 -13 -13 -13 -13 -13 -13
-16 -16 -16 -15 -15 -15 -16 -15 -14 -13 -12 -12 -12 -12 -11 -12 -12 -11 -12 -12 -12 -12 -11 -11 -11 -11 -11 -11 -11 -11 -11 -12 -12 -12 -12 -12 -13 -13 -13 -13 -13 -13 -14 -14
-17 -16 -16 -15 -15 -15 -15 -15 -15 -14 -13 -13 -13 -12 -11 -12 -12 -12 -12 -12 -12 -12 -12 -12 -12 -12 -11 -12 -12 -12 -12 -12 -12 -12 -13 -13 -13 -13 -14 -14 -14 -14 -14 -14
-17 -17 -16 -16 -16 -16 -16 -15 -15 -15 -14 -13 -13 -13 -12 -12 -12 -12 -12 -12 -12 -12 -12 -12 -12 -12 -12 -12 -12 -13 -13 -12 -13 -13 -13 -14 -14 -14 -14 -14 -14 -14 -14 -14
-18 -17 -17 -16 -16 -16 -16 -15 -15 -15 -14 -14 -14 -13 -12 -13 -13 -12 -12 -12 -12 -12 -13 -13 -12 -12 -13 -13 -13 -13 -13 -13 -13 -13 -13 -14 -15 -15 -15 -15 -15 -15 -15 -15
-18 -18 -18 -18 -17 -16 -16 -16 -16 -15 -15 -14 -14 -13 -13 -13 -14 -13 -13 -13 -13 -13 -14 -14 -13 -13 -14 -14 -14 -14 -13 -14 -14 -14 -14 -15 -15 -15 -15 -15 -15 -15 -15 -15
-18 -18 -18 -18 -18 -17 -16 -17 -16 -16 -15 -15 -14 -14 -14 -14 -14 -14 -14 -14 -14 -14 -14 -14 -14 -14 -14 -14 -14 -14 -14 -15 -15 -15 -15 -15 -15 -16 -16 -16 -16 -16 -16 -16
-19 -18 -18 -18 -18 -18 -17 -17 -17 -17 -16 -15 -15 -14 -14 -14 -14 -14 -15 -15 -15 -15 -16 -15 -16 -15 -15 -15 -15 -15 -15 -15 -16 -16 -16 -16 -16 -16 -16 -16 -16 -17 -17 -17
-18 -19 -19 -18 -18 -18 -18 -17 -17 -17 -16 -16 -16 -15 -14 -15 -15 -15 -16 -16 -16 -16 -16 -17 -16 -16 -16 -15 -15 -16 -16 -16 -17 -17 -16 -16 -16 -17 -17 -17 -17 -17 -17 -18
-18 -19 -19 -19 -19 -18 -17 -17 -18 -18 -17 -17 -16 -16 -15 -15 -16 -16 -17 -17 -17 -18 -18 -17 -17 -17 -17 -17 -17 -17 -17 -16 -16 -16 -17 -16 -16 -17 -17 -17 -17 -18 -18 -19
-19 -19 -19 -19 -19 -19 -19 -19 -18 -18 -18 -17 -17 -17 -17 -17 -17 -18 -18 -18 -18 -18 -17 -17 -17 -18 -18 -18 -18 -17 -17 -16 -16 -17 -17 -17 -17 -17 -18 -18 -18 -19 -19 -20
-20 -19 -19 -20 -19 -19 -19 -19 -18 -17 -17 -17 -17 -17 -17 -18 -19 -19 -19 -19 -18 -17 -17 -18 -19 -18 -18 -18 -18 -18 -18 -18 -18 -18 -18 -18 -18 -18 -18 -19 -19 -20 -20 -21
-21 -20 -20 -19 -19 -19 -19 -18 -18 -18 -17 -17 -17 -17 -19 -20 -19 -20 -20 -19 -18 -19 -19 -19 -19 -19 -19 -18 -18 -18 -18 -18 -18 -18 -18 -18 -18 -18 -19 -19 -20 -21 -21 -22
-21 -21 -21 -20 -20 -19 -18 -18 -18 -19 -19 -19 -18 -19 -20 -20 -20 -20 -19 -20 -19 -19 -19 -19 -19 -19 -19 -19 -19 -19 -19 -19 -19 -19 -19 -19 -19 -19 -19 -20 -21 -22 -22 -23
-22 -22 -22 -21 -21 -19 -19 -20 -20 -20 -20 -20 -20 -19 -21 -21 -20 -20 -20 -20 -20 -19 -19 -20 -20 -20 -20 -19 -19 -19 -19 -19 -19 -19 -19 -20 -20 -20 -21 -22 -23 -23 -23 -23
-22 -22 -22 -22 -22 -20 -19 -19 -21 -22 -20 -20 -20 -21 -21 -22 -21 -21 -22 -21 -20 -20 -20 -20 -20 -20 -20 -20 -20 -20 -19 -19 -19 -20 -20 -20 -21 -21 -22 -23 -23 -24 -23 -23
-22 -22 -22 -22 -22 -21 -20 -22 -22 -23 -19 -22 -23 -23 -22 -23 -22 -21 -22 -22 -21 -21 -21 -20 -20 -20 -20 -20 -20 -20 -20 -19 -20 -20 -20 -21 -22 -23 -23 -23 -24 -24 -24 -24
-22 -22 -23 -23 -23 -21 -21 -22 -23 -23 -21 -23 -23 -23 -23 -23 -22 -21 -22 -22 -21 -21 -21 -21 -20 -20 -20 -20 -20 -20 -20 -20 -21 -21 -22 -22 -23 -24 -24 -24 -24 -24 -24 -23
-23 -24 -24 -24 -24 -22 -22 -23 -23 -23 -23 -23 -23 -23 -23 -22 -22 -22 -21 -21 -22 -22 -21 -21 -21 -20 -20 -20 -20 -21 -21 -21 -22 -23 -23 -24 -24 -25 -24 -24 -24 -24 -24 -24
-24 -24 -24 -24 -23 -23 -22 -23 -23 -23 -23 -24 -24 -24 -23 -23 -22 -23 -22 -22 -22 -22 -21 -21 -21 -21 -21 -21 -22 -22 -23 -24 -24 -25 -25 -25 -25 -25 -24 -24 -24 -24 -24 -25
-24 -24 -24 -24 -23 -23 -23 -24 -24 -25 -25 -25 -24 -24 -24 -24 -23 -23 -22 -22 -22 -22 -21 -22 -22 -23 -23 -23 -23 -24 -24 -26 -25 -25 -25 -25 -25 -25 -25 -24 -25 -25 -25 -26
-24 -25 -24 -24 -23 -24 -25 -25 -25 -26 -25 -25 -24 -24 -24 -24 -23 -23 -23 -22 -23 -23 -24 -24 -24 -25 -25 -25 -25 -25 -25 -25 -25 -25 -25 -24 -25 -25 -25 -26 -26 -26 -26 -26
-25 -25 -25 -25 -25 -26 -26 -26 -26 -25 -25 -25 -25 -24 -24 -24 -24 -24 -24 -24 -25 -25 -25 -26 -26 -25 -25 -25 -25 -25 -25 -25 -25 -25 -25 -25 -25 -25 -25 -25 -26 -26 -26 -27
Height
5755 5760 5766 5769 5771 5775 5779 5782 5785 5789 5793 5795 5800 5805 5809 5812 5816 5819 5821 5820 5820 5820 5823 5824 5823 5823 5823 5823 5822 5821 5819 5818 5816 5814 5812 5809 5807 5805 5803 5800 5797 5793 5790 5787
5748 5752 5757 5759 5762 5766 5771 5775 5777 5781 5785 5788 5791 5798 5801 5804 5809 5812 5812 5813 5813 5813 5816 5816 5815 5815 5815 5813 5813 5812 5811 5809 5807 5805 5802 5800 5797 5794 5791 5788 5785 5781 5778 5775
5739 5744 5747 5751 5756 5759 5763 5767 5768 5772 5776 5779 5782 5787 5791 5794 5799 5802 5805 5804 5805 5806 5807 5807 5807 5807 5806 5805 5803 5801 5801 5799 5796 5793 5791 5788 5785 5783 5780 5777 5774 5770 5767 5764
5729 5734 5739 5742 5747 5750 5754 5759 5761 5764 5766 5770 5774 5777 5782 5786 5788 5792 5794 5796 5797 5798 5798 5799 5799 5798 5797 5795 5794 5792 5789 5787 5784 5782 5779 5775 5772 5770 5768 5765 5762 5759 5756 5753
5723 5727 5731 5734 5740 5743 5746 5750 5752 5754 5758 5760 5765 5766 5777 5777 5780 5782 5784 5786 5787 5788 5789 5789 5789 5789 5787 5786 5784 5782 5779 5776 5773 5770 5767 5763 5760 5758 5756 5752 5750 5748 5745 5742
5709 5715 5720 5726 5730 5734 5738 5741 5744 5746 5748 5751 5758 5758 5764 5770 5771 5774 5776 5777 5777 5778 5778 5777 5777 5777 5776 5775 5773 5770 5768 5765 5762 5758 5755 5751 5749 5746 5744 5742 5739 5736 5734 5731
5698 5705 5712 5717 5720 5724 5728 5733 5736 5739 5739 5741 5748 5752 5755 5759 5762 5763 5764 5766 5766 5767 5766 5765 5764 5765 5765 5763 5761 5758 5755 5752 5749 5746 5743 5740 5737 5734 5732 5731 5728 5726 5723 5721
5686 5693 5701 5709 5714 5716 5721 5724 5726 5727 5730 5733 5735 5741 5743 5744 5751 5754 5755 5755 5754 5754 5753 5752 5753 5753 5753 5750 5749 5746 5742 5740 5738 5735 5731 5728 5725 5723 5721 5720 5717 5714 5712 5708
5677 5682 5689 5695 5702 5706 5710 5712 5718 5719 5721 5724 5726 5731 5734 5736 5736 5742 5744 5743 5741 5741 5741 5742 5742 5742 5740 5739 5736 5734 5730 5727 5725 5722 5720 5717 5714 5712 5710 5707 5704 5701 5698 5696
5667 5672 5677 5684 5688 5693 5697 5704 5706 5707 5710 5714 5718 5720 5724 5727 5727 5726 5727 5728 5729 5730 5730 5730 5730 5728 5727 5725 5722 5720 5717 5714 5712 5710 5708 5705 5703 5700 5697 5694 5691 5689 5686 5682
5657 5663 5668 5672 5676 5684 5690 5692 5698 5701 5703 5705 5708 5711 5712 5714 5716 5716 5713 5713 5715 5717 5719 5719 5718 5717 5715 5712 5708 5706 5703 5702 5700 5697 5695 5693 5690 5687 5685 5683 5679 5676 5673 5669
5649 5653 5658 5662 5666 5673 5677 5682 5685 5687 5692 5695 5698 5701 5703 5704 5704 5703 5701 5702 5703 5705 5705 5703 5703 5702 5700 5697 5694 5692 5691 5689 5688 5687 5683 5680 5678 5676 5672 5669 5666 5662 5659 5654
5639 5644 5646 5651 5656 5660 5663 5670 5676 5679 5682 5687 5688 5691 5692 5692 5691 5689 5689 5691 5692 5692 5691 5689 5688 5686 5684 5683 5682 5681 5679 5677 5676 5674 5672 5669 5666 5663 5660 5656 5653 5649 5645 5641
5632 5635 5638 5642 5649 5652 5656 5660 5664 5666 5669 5671 5676 5679 5680 5681 5679 5678 5679 5680 5679 5679 5678 5676 5674 5674 5673 5671 5670 5668 5667 5665 5663 5662 5660 5658 5654 5650 5646 5643 5639 5635 5631 5627
5625 5629 5633 5634 5638 5641 5645 5648 5651 5654 5659 5659 5667 5667 5670 5670 5667 5666 5664 5664 5664 5663 5662 5664 5664 5662 5660 5659 5657 5656 5654 5652 5650 5648 5646 5643 5640 5636 5633 5629 5625 5621 5617 5613
5618 5622 5624 5627 5630 5633 5636 5639 5642 5645 5647 5649 5653 5657 5657 5655 5653 5654 5652 5650 5651 5652 5653 5651 5649 5648 5647 5645 5644 5642 5642 5640 5638 5635 5631 5628 5624 5621 5618 5615 5611 5606 5602 5599
5611 5616 5617 5619 5622 5624 5630 5632 5635 5638 5640 5642 5642 5646 5643 5643 5642 5642 5640 5641 5640 5640 5639 5638 5636 5634 5633 5631 5631 5629 5627 5626 5623 5620 5617 5614 5610 5607 5602 5599 5596 5592 5589 5585
5605 5608 5610 5612 5613 5615 5621 5624 5625 5625 5628 5629 5632 5633 5632 5629 5629 5630 5629 5628 5628 5627 5626 5626 5624 5623 5621 5619 5617 5615 5613 5610 5607 5604 5601 5598 5594 5591 5587 5584 5581 5578 5575 5572
5596 5599 5602 5603 5606 5610 5614 5615 5618 5616 5619 5619 5622 5622 5619 5617 5618 5622 5617 5617 5617 5615 5614 5613 5611 5610 5609 5606 5603 5600 5598 5594 5590 5586 5583 5580 5577 5573 5571 5569 5567 5564 5561 5558
5588 5589 5592 5594 5596 5600 5608 5606 5602 5604 5607 5617 5609 5608 5608 5606 5606 5609 5603 5604 5603 5602 5600 5598 5597 5595 5593 5591 5588 5585 5581 5578 5573 5569 5566 5562 5559 5556 5555 5553 5551 5549 5547 5544
5580 5581 5582 5585 5585 5591 5598 5593 5593 5593 5607 5598 5598 5598 5595 5595 5594 5595 5590 5589 5589 5588 5587 5585 5583 5580 5577 5574 5570 5566 5562 5560 5555 5552 5548 5546 5543 5542 5540 5538 5538 5536 5534 5531
5572 5574 5575 5576 5577 5581 5590 5581 5580 5586 5584 5584 5583 5583 5582 5582 5582 5580 5578 5575 5573 5572 5570 5568 5566 5563 5560 5556 5552 5550 5545 5542 5539 5535 5533 5531 5530 5528 5527 5526 5526 5524 5520 5518
5561 5565 5565 5567 5570 5574 5569 5568 5569 5569 5572 5570 5568 5567 5564 5565 5566 5565 5563 5561 5558 5555 5553 5550 5547 5543 5540 5536 5534 5531 5528 5526 5524 5521 5520 5519 5520 5518 5517 5515 5514 5512 5510 5507
5551 5553 5553 5553 5562 5561 5557 5555 5554 5551 5552 5553 5553 5549 5545 5546 5546 5545 5542 5542 5541 5538 5533 5529 5528 5526 5523 5521 5519 5517 5515 5514 5513 5511 5510 5510 5510 5509 5508 5506 5504 5502 5500 5496
5541 5542 5544 5540 5549 5547 5545 5542 5543 5538 5535 5533 5530 5527 5527 5523 5523 5520 5520 5518 5517 5514 5512 5511 5510 5509 5507 5506 5506 5505 5505 5505 5504 5503 5502 5502 5501 5500 5499 5498 5496 5492 5487 5482
5529 5533 5530 5529 5537 5530 5531 5534 5530 5525 5522 5516 5509 5507 5507 5501 5497 5493 5494 5493 5494 5495 5495 5495 5495 5495 5495 5496 5497 5497 5496 5495 5496 5495 5495 5494 5493 5492 5490 5488 5484 5480 5476 5471
Wind_Speed
52 52 52 49 48 44 41 43 44 43 45 48 47 45 45 41 37 34 32 34 35 35 32 31 32 32 33 34 35 35 36 38 40 42 45 47 47 48 48 49 51 51 50 48
48 49 42 43 51 45 40 41 42 43 45 47 46 44 46 44 39 36 37 36 36 36 34 35 36 37 39 40 45 44 43 44 47 50 49 50 50 51 51 54 53 50 48 50
52 51 53 51 48 50 40 39 41 44 45 48 48 48 48 46 43 41 40 40 40 40 39 38 39 40 40 45 47 47 49 52 53 56 56 54 54 54 54 52 50 50 50 49
50 49 47 45 44 45 45 43 43 46 46 49 49 53 49 47 46 44 43 42 42 42 41 41 42 41 42 53 57 55 56 58 59 59 59 57 54 52 51 51 51 49 47 47
51 50 45 46 44 40 41 41 43 46 48 48 50 53 48 47 46 47 45 43 43 42 42 42 43 47 52 57 56 56 60 62 62 62 59 54 51 51 52 51 49 49 48 48
56 55 53 49 47 47 48 44 42 45 46 49 45 48 51 47 47 46 44 44 44 44 44 43 46 52 58 54 57 61 61 59 59 58 53 50 48 48 49 50 49 49 50 50
60 57 55 53 48 50 44 51 46 45 48 51 50 46 48 47 48 47 45 45 47 47 46 47 48 54 57 59 59 56 56 53 50 50 51 49 48 47 47 48 48 49 51 51
57 58 56 56 51 48 48 45 51 51 49 49 50 48 50 50 45 44 45 47 47 49 49 50 52 54 58 57 56 52 51 51 52 52 51 49 47 48 48 48 49 50 51 52
55 58 54 52 51 47 49 53 45 51 53 50 47 46 46 45 45 43 47 49 51 52 52 52 54 56 53 52 54 55 56 55 53 52 51 50 49 50 51 51 51 52 52 51
49 53 56 53 55 50 51 49 47 48 51 53 55 55 49 48 50 51 50 51 51 53 56 56 55 53 54 54 53 52 51 52 52 50 50 50 50 50 51 52 52 52 51 51
43 47 52 52 54 57 48 45 53 50 47 50 50 51 52 52 51 52 53 56 58 58 53 52 51 50 50 51 52 53 52 51 49 49 48 49 51 52 51 51 51 52 53 54
43 43 43 47 51 52 56 58 55 51 52 53 52 55 56 56 57 60 60 59 57 53 51 51 51 50 50 53 53 53 51 51 50 50 52 52 51 52 53 53 54 54 55 56
37 39 45 47 47 48 54 55 53 54 58 59 60 61 62 63 62 61 58 55 54 52 51 49 48 50 49 48 48 50 51 53 53 53 53 54 54 54 54 55 56 57 57 56
32 35 39 42 42 41 43 44 47 49 52 54 54 53 54 54 56 57 56 53 53 52 51 52 51 49 48 49 49 50 52 54 54 54 53 53 55 55 56 57 57 56 54 54
28 31 33 35 38 40 39 40 43 47 49 52 49 51 50 48 50 51 54 52 53 54 54 50 48 49 51 52 53 52 54 55 55 55 55 55 56 57 58 57 57 56 54 53
28 30 32 34 37 38 41 43 45 45 47 47 46 45 45 46 49 49 51 54 54 52 50 51 53 54 54 54 54 54 53 53 53 55 56 57 58 59 60 61 60 57 55 53
27 27 33 36 36 39 38 39 40 41 42 42 45 43 42 42 43 48 50 51 52 53 53 53 54 55 56 55 54 55 55 54 55 56 59 61 61 63 65 63 59 56 54 52
28 30 34 37 39 41 38 36 37 40 39 40 40 43 43 46 50 51 50 51 51 52 53 52 52 53 54 55 56 56 57 58 59 61 62 64 65 66 64 62 56 53 51 52
33 33 36 40 40 42 40 42 41 43 44 45 45 44 47 47 49 46 48 51 52 53 53 53 54 54 54 55 57 59 60 62 63 64 65 66 66 65 62 60 57 53 51 51
33 34 38 40 44 43 38 42 45 44 46 33 40 44 44 44 47 46 50 52 54 56 57 57 57 57 57 58 59 60 62 64 66 67 69 68 65 63 59 57 55 49 48 47
35 36 37 36 39 41 37 41 38 46 38 40 42 43 46 48 51 53 56 56 58 59 59 61 62 61 62 62 63 65 66 67 68 70 69 65 59 55 46 47 46 45 47 49
38 36 38 43 46 48 43 48 50 45 46 46 49 50 52 53 52 54 57 59 59 60 61 62 62 63 64 64 66 66 67 67 66 61 51 43 41 40 41 44 41 47 49 55
46 45 45 47 49 51 57 55 53 54 55 54 54 55 57 58 60 63 64 64 66 65 63 63 65 65 65 65 64 64 62 54 46 41 31 34 39 39 39 40 48 43 44 38
48 49 49 51 53 54 56 58 59 58 59 61 66 69 71 71 73 76 76 74 70 67 67 67 64 61 60 61 59 53 42 32 31 32 35 36 39 39 42 34 28 33 40 43
49 50 50 54 54 53 53 58 59 62 67 73 78 80 82 87 89 91 89 81 72 66 63 59 53 51 52 50 42 33 28 31 32 28 30 35 25 19 23 29 36 38 42 46
44 44 48 53 52 57 59 59 64 69 74 79 81 86 89 94 92 92 83 67 58 55 48 41 42 41 36 30 28 29 28 25 21 21 21 26 30 31 34 36 39 41 43 44
Wind_Direction
248 249 254 253 248 250 250 250 249 245 240 242 243 242 242 245 247 247 247 249 253 257 262 267 269 272 274 279 288 295 293 293 295 297 299 298 295 292 290 289 289 291 291 289
242 248 252 253 251 242 248 247 248 248 244 241 240 240 242 244 245 245 246 251 257 260 264 268 271 273 276 286 288 285 287 293 298 298 297 295 292 290 289 289 289 288 287 287
246 246 246 247 249 248 245 247 244 247 245 241 238 235 236 242 245 244 246 249 254 260 264 268 272 276 280 284 284 283 285 290 296 297 296 295 291 290 290 288 287 286 286 285
240 243 247 247 248 247 246 247 248 246 244 242 240 238 235 238 242 244 247 250 255 259 264 270 275 279 285 285 286 287 288 290 293 295 295 294 291 289 288 287 286 284 283 284
243 240 239 242 241 241 242 248 246 244 244 243 242 244 232 240 241 246 248 251 255 260 264 268 275 280 282 280 281 284 287 289 292 293 292 288 287 287 286 286 284 284 284 284
239 239 239 239 238 243 238 244 250 248 246 247 243 245 243 239 244 247 250 253 256 257 260 264 268 279 278 279 282 286 288 290 291 289 286 285 285 285 285 283 282 283 285 287
240 239 239 238 240 239 244 241 251 253 250 248 246 246 253 246 245 247 250 254 257 261 264 267 269 273 276 279 285 286 288 288 287 285 284 283 282 281 280 281 282 285 287 288
235 239 243 244 242 242 240 243 247 248 250 249 249 243 244 251 250 250 253 257 261 261 265 270 274 276 280 283 285 285 285 284 285 285 283 282 280 280 282 283 285 285 286 287
236 238 239 240 237 240 237 239 245 247 248 249 248 249 248 251 257 257 258 259 259 262 268 273 277 280 282 282 281 283 283 283 282 280 280 279 280 282 284 284 285 286 287 288
239 237 237 237 234 236 238 239 240 242 245 247 251 253 255 255 259 263 264 262 265 268 272 278 283 284 284 284 282 281 280 278 277 276 276 279 281 282 283 284 285 285 287 287
237 238 239 240 237 235 237 242 243 247 247 246 248 248 249 252 256 261 265 268 270 273 278 280 280 281 280 278 278 278 276 276 275 276 278 278 279 280 281 282 284 285 286 287
237 242 242 244 243 239 239 240 243 242 243 249 251 252 254 257 259 265 269 270 274 279 282 281 281 278 277 276 276 275 275 275 275 277 279 279 280 281 282 283 284 285 286 286
238 235 240 238 244 241 240 242 246 249 250 251 254 257 260 266 268 269 272 275 277 278 278 276 274 275 273 271 270 272 274 275 277 278 279 280 280 281 282 283 285 285 285 284
233 234 238 244 245 250 246 246 245 247 247 248 250 254 257 259 262 266 269 271 270 270 270 271 271 273 274 276 277 278 280 280 280 280 281 281 282 284 285 285 285 284 282 281
237 241 239 240 241 242 243 244 245 246 249 250 251 252 255 259 263 264 265 268 270 269 270 272 273 274 277 279 280 281 281 282 284 286 287 286 285 285 286 287 287 286 284 281
241 243 240 240 244 244 243 242 245 247 247 251 255 256 257 258 258 261 263 264 267 272 275 277 279 280 280 280 281 281 282 284 285 286 286 286 287 287 287 286 285 285 285 283
240 242 244 246 248 250 249 249 250 252 254 257 256 260 258 259 261 260 263 268 271 273 275 276 279 280 282 283 284 285 287 287 286 285 285 285 285 285 286 285 285 285 286 281
244 241 243 245 246 248 252 253 256 256 253 255 258 259 265 266 264 267 272 272 273 274 276 277 278 280 282 282 282 283 283 284 284 283 282 282 283 283 284 284 285 286 285 281
244 240 239 242 245 251 253 253 259 264 261 262 265 270 269 273 272 276 277 276 276 275 275 275 275 276 277 279 281 283 283 283 282 282 282 282 282 282 282 282 285 286 286 285
256 255 248 252 252 255 258 258 263 265 259 270 269 267 268 269 270 270 272 274 275 274 276 278 280 280 281 281 281 280 279 279 280 281 281 281 284 286 287 285 286 283 283 280
257 256 253 253 254 258 261 262 268 266 278 270 270 270 268 269 271 270 271 275 276 276 277 277 278 280 281 281 281 281 281 280 280 279 281 285 285 285 286 283 281 280 280 280
253 249 252 256 259 262 271 272 272 279 280 280 278 278 275 274 275 277 277 279 281 282 281 281 282 282 281 281 280 279 279 280 281 284 285 281 283 277 276 262 292 284 276 279
245 252 261 262 265 266 269 276 279 278 278 284 284 286 288 287 285 289 287 286 285 285 285 283 282 281 281 280 282 282 282 284 282 278 272 271 274 270 285 282 271 272 278 273
249 257 261 265 266 271 274 276 280 288 287 286 287 287 287 291 292 292 293 289 286 284 280 278 278 278 278 279 281 283 278 277 281 275 278 280 274 275 272 286 275 276 282 285
249 251 260 262 268 271 275 280 284 285 286 284 284 286 287 289 291 292 291 287 283 279 277 277 276 274 276 279 278 272 274 277 282 282 279 271 271 281 282 281 283 287 294 300
248 253 259 265 271 276 276 276 277 279 281 284 288 286 286 287 287 286 285 281 276 273 270 269 271 271 273 271 272 280 280 279 269 279 262 270 279 281 283 289 295 300 304 306